Weather in Advoritsy

Russia / Pskov Oblast     57°43′09″N   28°00′10″E
temp.,
°C
wind,
m/s
gust,
m/s
humid.,
%
clouds,
%
prec.,
mm/h
press.,
hPa
HPBL,
m
5 august, thu
thu500:00+12ese2273100 0.0 101716
03:00+11ese2279100 0.0 101620
06:00+11e2276100 0.0 101646
09:00+15e2467100 0.0 1016310
12:00+16e3465100 0.0 1016698
15:00+18e565817 0.0 10151296
18:00+16e46635 0.0 1015645
21:00+11ne22893 0.0 101530
6 august, fri
fri600:00+10nne34952 0.0 101579
03:00+9ne239656 0.0 101578
06:00+11ne38953 0.0 1013258
09:00+16ene597295 0.0 1012863
12:00+18e6865100 0.1 10121327
15:00+17ene6967100 0.1 10101220
18:00+18ene5963100 0.0 10091190
21:00+15ene61180100 0.1 1008609
7 august, sat
sat700:00+14ene51392100 0.5 1007593
03:00+14ene51297100 1.1 1005563
06:00+15ene51199100 0.1 1004490
09:00+16ene41098100 0.3 1002450
12:00+17ese4899100 0.8 1003524
15:00+20s568063 1.5 1003844
18:00+20s666281 0.1 10031255
21:00+16sse3778100 0.1 1005361
8 august, sun
sun800:00+15s3694100 0.2 1006248
03:00+14s2597100 0.3 1007177
06:00+14ssw2397100 0.1 1008113
09:00+16sw369199 0.2 1009340
12:00+20sw347571 0.3 1010889
15:00+23wsw455977 0.9 10101305
18:00+21sw356727 0.1 1011526
21:00+18sse3581100 0.1 101273
9 august, mon
mon900:00+16ssw2386100 0.0 101238
03:00+15sse358899 0.1 101274
06:00+16se398999 0.4 1011223
09:00+19s468443 1.0 1011509
12:00+19sw4684100 0.2 1011670
15:00+20sw3783100 0.3 1013717
18:00+19wsw41086100 2.1 1014596
21:00+17wsw3791100 2.6 1015173